This is the latest recevied weather packets stored in our database for station/object KC5AV. If no packets are shown the sender has not sent any weather packets the latest 10 day(s).
| Time | Temp. | Humidity | Pressure | Rain* | Wind** | Luminosity | Snow |
|---|---|---|---|---|---|---|---|
| 1777561603 | 17.22° C | 87% | 1015.1 hPa | 0 mm | - | 153 W/m² | - |
| 1777561299 | 17.22° C | 89% | 1015.3 hPa | 0 mm | - | 181 W/m² | - |
| 1777560998 | 16.67° C | 89% | 1015 hPa | 0 mm | - | 227 W/m² | - |
| 1777560694 | 16.67° C | 89% | 1015.2 hPa | 0 mm | - | 123 W/m² | - |
| 1777560392 | 16.67° C | 89% | 1015.2 hPa | 0 mm | - | 123 W/m² | - |
| 1777560089 | 16.67° C | 89% | 1015.2 hPa | 0 mm | - | 114 W/m² | - |
| 1777559785 | 16.67° C | 90% | 1015.3 hPa | 0 mm | - | 152 W/m² | - |
| 1777558955 | 16.11° C | 91% | 1015.2 hPa | 0 mm | - | 76 W/m² | - |
| 1777558651 | 16.11° C | 91% | 1015.2 hPa | 0 mm | - | 76 W/m² | - |
| 1777558347 | 16.11° C | 92% | 1015.3 hPa | 0 mm | - | 65 W/m² | - |
| 1777558044 | 16.11° C | 92% | 1015.1 hPa | 0 mm | - | 66 W/m² | - |
| 1777557740 | 16.11° C | 91% | 1015.2 hPa | 0 mm | - | 66 W/m² | - |
| 1777557437 | 16.11° C | 92% | 1015.2 hPa | 0 mm | - | 66 W/m² | - |
| 1777557134 | 16.11° C | 92% | 1015.2 hPa | 0 mm | - | 62 W/m² | - |
| 1777556829 | 16.11° C | 93% | 1015.7 hPa | 0 mm | - | 61 W/m² | - |
| 1777556525 | 16.11° C | 93% | 1015.7 hPa | 0 mm | - | 57 W/m² | - |
| 1777556225 | 16.11° C | 94% | 1015.4 hPa | 0 mm | - | 62 W/m² | - |
| 1777555921 | 16.11° C | 94% | 1015.3 hPa | 0 mm | - | 54 W/m² | - |
| 1777555616 | 16.11° C | 94% | 1015.3 hPa | 0 mm | - | 56 W/m² | - |
| 1777555314 | 16.11° C | 95% | 1015.6 hPa | 0 mm | - | 58 W/m² | - |
| 1777552880 | 15.56° C | 96% | 1014.8 hPa | 0 mm | - | 21 W/m² | - |
| 1777552575 | 15.56° C | 96% | 1014.8 hPa | 0 mm | - | 21 W/m² | - |
| 1777552272 | 15.56° C | 96% | 1014.7 hPa | 0 mm | - | 24 W/m² | - |
| 1777551968 | 15.56° C | 96% | 1014.7 hPa | 0 mm | - | 16 W/m² | - |
| 1777551666 | 15.56° C | 96% | 1014.9 hPa | 0 mm | - | 24 W/m² | - |
* Rain latest hour (hover to see other rain measurements)
** Current wind speed in m/s (hover to see current wind gust speed)